Погода в Бринчанге

Малайзия     4°29′21″N   101°23′27″E
темп.,
°C
ветер,
м/с
пор.,
м/с
влажн.,
%
обл.,
%
осадки,
мм/ч
давл.,
гПа
погр.,
м
18 мая, вт
вт1823:00+19з1198100 6.8 101318
02:00+19з119775 10.8 101119
05:00+18з2298100 1.3 101154
08:00+18зсз2297100 1.9 101246
11:00+23зюз128799 0.6 1013482
14:00+24з238567 2.7 1011791
17:00+22з1393100 3.9 1009502
20:00+18з2398100 5.9 101282
19 мая, ср
ср1923:00+18з1196100 0.1 101420
02:00+18з1299100 1.6 101247
05:00+18з1298100 1.8 101154
08:00+18з1195100 2.0 101231
11:00+19зсз2188100 0.0 101238
14:00+20зсз1281100 0.0 101141
17:00+20ссз0088100 0.4 101037
20:00+18з1197100 1.2 101241
20 мая, чт
чт2023:00+18з1194100 0.2 101426
02:00+18з1193100 0.3 101218
05:00+18зсз119299 0.0 101220
08:00+19з118889 0.0 101327
11:00+20в0184100 0.0 101369
14:00+21зюз0185100 0.0 101161
17:00+22з1284100 0.0 101064
20:00+20з1192100 0.1 101228
21 мая, пт
пт2123:00+19з1195100 0.0 101418
02:00+18з2190100 0.0 101343
05:00+18з238271 0.0 101152
08:00+19з227990 0.0 101354
11:00+26ююв115514 0.0 10121277
14:00+29юз125076 0.1 10091715
17:00+23зюз239261 2.1 1009608
20:00+18з219899 4.2 101233
22 мая, сб
сб2223:00+18з2196100 1.1 101325
02:00+18з1195100 1.3 101222
05:00+18з2194100 0.0 101133
08:00+19з129398 0.0 101367
11:00+26ююв125633 0.0 10121346
14:00+24ю0180100 1.9 1011874
17:00+25з1262100 0.8 10091170
20:00+19з2191100 0.9 101234